Location: Fazenda Monte Alegre
(4.8500°S, 38.0333°W)
Time: 14:11:11
(UTC+00:00)

COSMOS 2455 - Pass Details

Date: 24 September 2020
Orbit: 898 x 911 km, 67.1° (Epoch: 20 October)

Event Time Altitude Azimuth Distance (km) Brightness Sun altitude
Rises 20:43:36 0° 173° (S) 3,521 5.9 -4.8°
Reaches altitude 10° 20:46:53 10° 155° (SSE) 2,579 5.0 -5.7°
Maximum altitude 20:50:59 19° 111° (ESE) 2,009 4.1 -6.7°
Drops below altitude 10° 20:55:03 10° 68° (ENE) 2,576 4.6 -7.7°
Enters shadow 20:56:51 - 57° (ENE) 3,069 5.1 -8.1°
